Year,Month,Day,Hour,Minute,Value (Times are PST for temperature in C)
2006,08,17,00,00,14.50
2006,08,17,00,01,14.50
2006,08,17,00,02,14.50
2006,08,17,00,03,14.50
2006,08,17,00,04,14.50
2006,08,17,00,05,14.40
2006,08,17,00,06,14.40
2006,08,17,00,07,14.40
2006,08,17,00,08,14.30
2006,08,17,00,09,14.30
2006,08,17,00,10,14.30
2006,08,17,00,11,14.20
2006,08,17,00,12,14.20
2006,08,17,00,13,14.20
2006,08,17,00,14,14.20
2006,08,17,00,15,14.20
2006,08,17,00,16,14.20
2006,08,17,00,17,14.20
2006,08,17,00,18,14.10
2006,08,17,00,19,14.10
2006,08,17,00,20,14.10
2006,08,17,00,21,14.00
2006,08,17,00,22,14.00
2006,08,17,00,23,14.00
2006,08,17,00,24,14.00
2006,08,17,00,25,14.00
2006,08,17,00,26,13.90
2006,08,17,00,27,13.90
2006,08,17,00,28,13.90
2006,08,17,00,29,13.90
2006,08,17,00,30,13.90
2006,08,17,00,31,13.90
2006,08,17,00,32,13.90
2006,08,17,00,33,13.90
2006,08,17,00,34,13.80
2006,08,17,00,35,13.80
2006,08,17,00,36,13.80
2006,08,17,00,37,13.80
2006,08,17,00,38,13.80
2006,08,17,00,39,13.80
2006,08,17,00,40,13.80
2006,08,17,00,41,13.70
2006,08,17,00,42,13.70
2006,08,17,00,43,13.70
2006,08,17,00,44,13.70
2006,08,17,00,45,13.70
2006,08,17,00,46,13.70
2006,08,17,00,47,13.70
2006,08,17,00,48,13.70
2006,08,17,00,49,13.70
2006,08,17,00,50,13.70
2006,08,17,00,51,13.70
2006,08,17,00,52,13.70
2006,08,17,00,53,13.70
2006,08,17,00,54,13.70
2006,08,17,00,55,13.70
2006,08,17,00,56,13.70
2006,08,17,00,57,13.70
2006,08,17,00,58,13.60
2006,08,17,00,59,13.60
2006,08,17,01,00,13.60
2006,08,17,01,01,13.60
2006,08,17,01,02,13.60
2006,08,17,01,03,13.50
2006,08,17,01,04,13.50
2006,08,17,01,05,13.50
2006,08,17,01,06,13.50
2006,08,17,01,07,13.40
2006,08,17,01,08,13.40
2006,08,17,01,09,13.30
2006,08,17,01,10,13.30
2006,08,17,01,11,13.30
2006,08,17,01,12,13.30
2006,08,17,01,13,13.30
2006,08,17,01,14,13.30
2006,08,17,01,15,13.20
2006,08,17,01,16,13.20
2006,08,17,01,17,13.20
2006,08,17,01,18,13.10
2006,08,17,01,19,13.10
2006,08,17,01,20,13.10
2006,08,17,01,21,13.00
2006,08,17,01,22,13.00
2006,08,17,01,23,13.00
2006,08,17,01,24,13.00
2006,08,17,01,25,12.90
2006,08,17,01,26,12.90
2006,08,17,01,27,12.90
2006,08,17,01,28,12.90
2006,08,17,01,29,12.80
2006,08,17,01,30,12.80
2006,08,17,01,31,12.80
2006,08,17,01,32,12.80
2006,08,17,01,33,12.80
2006,08,17,01,34,12.80
2006,08,17,01,35,12.80
2006,08,17,01,36,12.80
2006,08,17,01,37,12.80
2006,08,17,01,38,12.80
2006,08,17,01,39,12.80
2006,08,17,01,40,12.80
2006,08,17,01,41,12.80
2006,08,17,01,42,12.80
2006,08,17,01,43,12.80
2006,08,17,01,44,12.80
2006,08,17,01,45,12.80
2006,08,17,01,46,12.80
2006,08,17,01,47,12.80
2006,08,17,01,48,12.70
2006,08,17,01,49,12.70
2006,08,17,01,50,12.70
2006,08,17,01,51,12.70
2006,08,17,01,52,12.70
2006,08,17,01,53,12.70
2006,08,17,01,54,12.60
2006,08,17,01,55,12.60
2006,08,17,01,56,12.60
2006,08,17,01,57,12.60
2006,08,17,01,58,12.60
2006,08,17,01,59,12.60
2006,08,17,02,00,12.60
2006,08,17,02,01,12.60
2006,08,17,02,02,12.60
2006,08,17,02,03,12.50
2006,08,17,02,04,12.50
2006,08,17,02,05,12.50
2006,08,17,02,06,12.50
2006,08,17,02,07,12.50
2006,08,17,02,08,12.50
2006,08,17,02,09,12.40
2006,08,17,02,10,12.40
2006,08,17,02,11,12.40
2006,08,17,02,12,12.40
2006,08,17,02,13,12.40
2006,08,17,02,14,12.40
2006,08,17,02,15,12.30
2006,08,17,02,16,12.30
2006,08,17,02,17,12.30
2006,08,17,02,18,12.30
2006,08,17,02,19,12.30
2006,08,17,02,20,12.30
2006,08,17,02,21,12.30
2006,08,17,02,22,12.30
2006,08,17,02,23,12.30
2006,08,17,02,24,12.30
2006,08,17,02,25,12.30
2006,08,17,02,26,12.30
2006,08,17,02,27,12.20
2006,08,17,02,28,12.20
2006,08,17,02,29,12.20
2006,08,17,02,30,12.20
2006,08,17,02,31,12.20
2006,08,17,02,32,12.20
2006,08,17,02,33,12.10
2006,08,17,02,34,12.10
2006,08,17,02,35,12.10
2006,08,17,02,36,12.10
2006,08,17,02,37,12.00
2006,08,17,02,38,12.00
2006,08,17,02,39,12.00
2006,08,17,02,40,12.00
2006,08,17,02,41,12.00
2006,08,17,02,42,11.90
2006,08,17,02,43,11.90
2006,08,17,02,44,11.90
2006,08,17,02,45,11.90
2006,08,17,02,46,11.90
2006,08,17,02,47,11.90
2006,08,17,02,48,11.90
2006,08,17,02,49,11.90
2006,08,17,02,50,11.80
2006,08,17,02,51,11.80
2006,08,17,02,52,11.80
2006,08,17,02,53,11.80
2006,08,17,02,54,11.80
2006,08,17,02,55,11.80
2006,08,17,02,56,11.80
2006,08,17,02,57,11.80
2006,08,17,02,58,11.80
2006,08,17,02,59,11.80
2006,08,17,03,00,11.80
2006,08,17,03,01,11.80
2006,08,17,03,02,11.80
2006,08,17,03,03,11.80
2006,08,17,03,04,11.80
2006,08,17,03,05,11.80
2006,08,17,03,06,11.70
2006,08,17,03,07,11.70
2006,08,17,03,08,11.70
2006,08,17,03,09,11.70
2006,08,17,03,10,11.70
2006,08,17,03,11,11.60
2006,08,17,03,12,11.60
2006,08,17,03,13,11.60
2006,08,17,03,14,11.60
2006,08,17,03,15,11.60
2006,08,17,03,16,11.60
2006,08,17,03,17,11.60
2006,08,17,03,18,11.60
2006,08,17,03,19,11.60
2006,08,17,03,20,11.50
2006,08,17,03,21,11.40
2006,08,17,03,22,11.40
2006,08,17,03,23,11.40
2006,08,17,03,24,11.40
2006,08,17,03,25,11.40
2006,08,17,03,26,11.40
2006,08,17,03,27,11.40
2006,08,17,03,28,11.40
2006,08,17,03,29,11.40
2006,08,17,03,30,11.30
2006,08,17,03,31,11.30
2006,08,17,03,32,11.30
2006,08,17,03,33,11.30
2006,08,17,03,34,11.30
2006,08,17,03,35,11.30
2006,08,17,03,36,11.30
2006,08,17,03,37,11.30
2006,08,17,03,38,11.30
2006,08,17,03,39,11.30
2006,08,17,03,40,11.30
2006,08,17,03,41,11.30
2006,08,17,03,42,11.20
2006,08,17,03,43,11.20
2006,08,17,03,44,11.20
2006,08,17,03,45,11.20
2006,08,17,03,46,11.20
2006,08,17,03,47,11.20
2006,08,17,03,48,11.10
2006,08,17,03,49,11.10
2006,08,17,03,50,11.10
2006,08,17,03,51,11.10
2006,08,17,03,52,11.10
2006,08,17,03,53,11.10
2006,08,17,03,54,11.10
2006,08,17,03,55,11.10
2006,08,17,03,56,11.00
2006,08,17,03,57,10.90
2006,08,17,03,58,10.90
2006,08,17,03,59,10.90
2006,08,17,04,00,10.90
2006,08,17,04,01,10.90
2006,08,17,04,02,10.90
2006,08,17,04,03,10.90
2006,08,17,04,04,10.90
2006,08,17,04,05,10.80
2006,08,17,04,06,10.80
2006,08,17,04,07,10.80
2006,08,17,04,08,10.80
2006,08,17,04,09,10.80
2006,08,17,04,10,10.80
2006,08,17,04,11,10.80
2006,08,17,04,12,10.80
2006,08,17,04,13,10.80
2006,08,17,04,14,10.80
2006,08,17,04,15,10.80
2006,08,17,04,16,10.80
2006,08,17,04,17,10.80
2006,08,17,04,18,10.80
2006,08,17,04,19,10.80
2006,08,17,04,20,10.80
2006,08,17,04,21,10.80
2006,08,17,04,22,10.70
2006,08,17,04,23,10.70
2006,08,17,04,24,10.70
2006,08,17,04,25,10.70
2006,08,17,04,26,10.70
2006,08,17,04,27,10.70
2006,08,17,04,28,10.70
2006,08,17,04,29,10.70
2006,08,17,04,30,10.70
2006,08,17,04,31,10.70
2006,08,17,04,32,10.70
2006,08,17,04,33,10.60
2006,08,17,04,34,10.60
2006,08,17,04,35,10.60
2006,08,17,04,36,10.60
2006,08,17,04,37,10.60
2006,08,17,04,38,10.60
2006,08,17,04,39,10.60
2006,08,17,04,40,10.60
2006,08,17,04,41,10.60
2006,08,17,04,42,10.60
2006,08,17,04,43,10.60
2006,08,17,04,44,10.60
2006,08,17,04,45,10.60
2006,08,17,04,46,10.60
2006,08,17,04,47,10.60
2006,08,17,04,48,10.60
2006,08,17,04,49,10.60
2006,08,17,04,50,10.60
2006,08,17,04,51,10.60
2006,08,17,04,52,10.60
2006,08,17,04,53,10.60
2006,08,17,04,54,10.60
2006,08,17,04,55,10.60
2006,08,17,04,56,10.60
2006,08,17,04,57,10.60
2006,08,17,04,58,10.60
2006,08,17,04,59,10.60
2006,08,17,05,00,10.60
2006,08,17,05,01,10.60
2006,08,17,05,02,10.60
2006,08,17,05,03,10.60
2006,08,17,05,04,10.50
2006,08,17,05,05,10.40
2006,08,17,05,06,10.40
2006,08,17,05,07,10.40
2006,08,17,05,08,10.40
2006,08,17,05,09,10.40
2006,08,17,05,10,10.40
2006,08,17,05,11,10.40
2006,08,17,05,12,10.40
2006,08,17,05,13,10.40
2006,08,17,05,14,10.30
2006,08,17,05,15,10.30
2006,08,17,05,16,10.30
2006,08,17,05,17,10.30
2006,08,17,05,18,10.30
2006,08,17,05,19,10.30
2006,08,17,05,20,10.30
2006,08,17,05,21,10.20
2006,08,17,05,22,10.20
2006,08,17,05,23,10.20
2006,08,17,05,24,10.20
2006,08,17,05,25,10.20
2006,08,17,05,26,10.20
2006,08,17,05,27,10.20
2006,08,17,05,28,10.20
2006,08,17,05,29,10.20
2006,08,17,05,30,10.10
2006,08,17,05,31,10.10
2006,08,17,05,32,10.10
2006,08,17,05,33,10.10
2006,08,17,05,34,10.10
2006,08,17,05,35,10.10
2006,08,17,05,36,10.10
2006,08,17,05,37,10.10
2006,08,17,05,38,10.10
2006,08,17,05,39,10.10
2006,08,17,05,40,10.10
2006,08,17,05,41,10.10
2006,08,17,05,42,10.10
2006,08,17,05,43,10.10
2006,08,17,05,44,10.10
2006,08,17,05,45,10.10
2006,08,17,05,46,10.10
2006,08,17,05,47,10.10
2006,08,17,05,48,10.10
2006,08,17,05,49,10.10
2006,08,17,05,50,10.10
2006,08,17,05,51,10.10
2006,08,17,05,52,10.10
2006,08,17,05,53,10.10
2006,08,17,05,54,10.10
2006,08,17,05,55,10.10
2006,08,17,05,56,10.10
2006,08,17,05,57,10.10
2006,08,17,05,58,9.90
2006,08,17,05,59,9.90
2006,08,17,06,00,9.90
2006,08,17,06,01,9.90
2006,08,17,06,02,9.90
2006,08,17,06,03,9.90
2006,08,17,06,04,9.90
2006,08,17,06,05,9.90
2006,08,17,06,06,9.90
2006,08,17,06,07,9.90
2006,08,17,06,08,9.90
2006,08,17,06,09,9.90
2006,08,17,06,10,9.90
2006,08,17,06,11,9.90
2006,08,17,06,12,9.90
2006,08,17,06,13,9.80
2006,08,17,06,14,9.80
2006,08,17,06,15,9.80
2006,08,17,06,16,9.80
2006,08,17,06,17,9.90
2006,08,17,06,18,9.90
2006,08,17,06,19,9.90
2006,08,17,06,20,9.90
2006,08,17,06,21,9.90
2006,08,17,06,22,9.90
2006,08,17,06,23,9.90
2006,08,17,06,24,9.90
2006,08,17,06,25,9.90
2006,08,17,06,26,9.90
2006,08,17,06,27,9.90
2006,08,17,06,28,9.80
2006,08,17,06,29,9.80
2006,08,17,06,30,9.80
2006,08,17,06,31,9.80
2006,08,17,06,32,9.80
2006,08,17,06,33,9.80
2006,08,17,06,34,9.80
2006,08,17,06,35,9.80
2006,08,17,06,36,9.80
2006,08,17,06,37,9.80
2006,08,17,06,38,9.70
2006,08,17,06,39,9.70
2006,08,17,06,40,9.70
2006,08,17,06,41,9.70
2006,08,17,06,42,9.70
2006,08,17,06,43,9.70
2006,08,17,06,44,9.70
2006,08,17,06,45,9.70
2006,08,17,06,46,9.70
2006,08,17,06,47,9.70
2006,08,17,06,48,9.70
2006,08,17,06,49,9.70
2006,08,17,06,50,9.70
2006,08,17,06,51,9.70
2006,08,17,06,52,9.70
2006,08,17,06,53,9.80
2006,08,17,06,54,9.80
2006,08,17,06,55,9.80
2006,08,17,06,56,9.90
2006,08,17,06,57,9.90
2006,08,17,06,58,9.90
2006,08,17,06,59,9.90
2006,08,17,07,00,9.90
2006,08,17,07,01,10.10
2006,08,17,07,02,10.10
2006,08,17,07,03,10.10
2006,08,17,07,04,10.10
2006,08,17,07,05,10.10
2006,08,17,07,06,10.10
2006,08,17,07,07,10.10
2006,08,17,07,08,10.20
2006,08,17,07,09,10.20
2006,08,17,07,10,10.20
2006,08,17,07,11,10.20
2006,08,17,07,12,10.30
2006,08,17,07,13,10.30
2006,08,17,07,14,10.30
2006,08,17,07,15,10.30
2006,08,17,07,16,10.30
2006,08,17,07,17,10.30
2006,08,17,07,18,10.30
2006,08,17,07,19,10.30
2006,08,17,07,20,10.40
2006,08,17,07,21,10.40
2006,08,17,07,22,10.40
2006,08,17,07,23,10.40
2006,08,17,07,24,10.40
2006,08,17,07,25,10.40
2006,08,17,07,26,10.40
2006,08,17,07,27,10.50
2006,08,17,07,28,10.60
2006,08,17,07,29,10.60
2006,08,17,07,30,10.60
2006,08,17,07,31,10.60
2006,08,17,07,32,10.60
2006,08,17,07,33,10.60
2006,08,17,07,34,10.60
2006,08,17,07,35,10.70
2006,08,17,07,36,10.70
2006,08,17,07,37,10.70
2006,08,17,07,38,10.70
2006,08,17,07,39,10.70
2006,08,17,07,40,10.80
2006,08,17,07,41,10.80
2006,08,17,07,42,10.80
2006,08,17,07,43,10.80
2006,08,17,07,44,10.90
2006,08,17,07,45,10.90
2006,08,17,07,46,10.90
2006,08,17,07,47,10.90
2006,08,17,07,48,11.10
2006,08,17,07,49,11.10
2006,08,17,07,50,11.10
2006,08,17,07,51,11.10
2006,08,17,07,52,11.20
2006,08,17,07,53,11.20
2006,08,17,07,54,11.20
2006,08,17,07,55,11.30
2006,08,17,07,56,11.40
2006,08,17,07,57,11.40
2006,08,17,07,58,11.40
2006,08,17,07,59,11.50
2006,08,17,08,00,11.60
2006,08,17,08,01,11.60
2006,08,17,08,02,11.60
2006,08,17,08,03,11.70
2006,08,17,08,04,11.80
2006,08,17,08,05,11.80
2006,08,17,08,06,11.90
2006,08,17,08,07,12.00
2006,08,17,08,08,12.00
2006,08,17,08,09,12.10
2006,08,17,08,10,12.10
2006,08,17,08,11,12.20
2006,08,17,08,12,12.30
2006,08,17,08,13,12.30
2006,08,17,08,14,12.40
2006,08,17,08,15,12.40
2006,08,17,08,16,12.50
2006,08,17,08,17,12.50
2006,08,17,08,18,12.60
2006,08,17,08,19,12.60
2006,08,17,08,20,12.70
2006,08,17,08,21,12.70
2006,08,17,08,22,12.80
2006,08,17,08,23,12.80
2006,08,17,08,24,12.80
2006,08,17,08,25,12.90
2006,08,17,08,26,12.90
2006,08,17,08,27,12.90
2006,08,17,08,28,13.00
2006,08,17,08,29,13.00
2006,08,17,08,30,13.00
2006,08,17,08,31,13.10
2006,08,17,08,32,13.10
2006,08,17,08,33,13.20
2006,08,17,08,34,13.20
2006,08,17,08,35,13.20
2006,08,17,08,36,13.30
2006,08,17,08,37,13.30
2006,08,17,08,38,13.30
2006,08,17,08,39,13.30
2006,08,17,08,40,13.30
2006,08,17,08,41,13.40
2006,08,17,08,42,13.40
2006,08,17,08,43,13.50
2006,08,17,08,44,13.50
2006,08,17,08,45,13.50
2006,08,17,08,46,13.60
2006,08,17,08,47,13.60
2006,08,17,08,48,13.60
2006,08,17,08,49,13.70
2006,08,17,08,50,13.70
2006,08,17,08,51,13.70
2006,08,17,08,52,13.70
2006,08,17,08,53,13.70
2006,08,17,08,54,13.80
2006,08,17,08,55,13.80
2006,08,17,08,56,13.90
2006,08,17,08,57,13.90
2006,08,17,08,58,14.00
2006,08,17,08,59,14.00
2006,08,17,09,00,14.10
2006,08,17,09,01,14.10
2006,08,17,09,02,14.10
2006,08,17,09,03,14.20
2006,08,17,09,04,14.20
2006,08,17,09,05,14.20
2006,08,17,09,06,14.30
2006,08,17,09,07,14.40
2006,08,17,09,08,14.50
2006,08,17,09,09,14.50
2006,08,17,09,10,14.60
2006,08,17,09,11,14.70
2006,08,17,09,12,14.70
2006,08,17,09,13,14.80
2006,08,17,09,14,14.80
2006,08,17,09,15,14.90
2006,08,17,09,16,15.00
2006,08,17,09,17,15.00
2006,08,17,09,18,15.00
2006,08,17,09,19,15.00
2006,08,17,09,20,15.00
2006,08,17,09,21,15.00
2006,08,17,09,22,15.00
2006,08,17,09,23,15.10
2006,08,17,09,24,15.10
2006,08,17,09,25,15.10
2006,08,17,09,26,15.10
2006,08,17,09,27,15.10
2006,08,17,09,28,15.10
2006,08,17,09,29,15.10
2006,08,17,09,30,15.20
2006,08,17,09,31,15.20
2006,08,17,09,32,15.20
2006,08,17,09,33,15.20
2006,08,17,09,34,15.20
2006,08,17,09,35,15.20
2006,08,17,09,36,15.10
2006,08,17,09,37,15.10
2006,08,17,09,38,15.10
2006,08,17,09,39,15.20
2006,08,17,09,40,15.20
2006,08,17,09,41,15.20
2006,08,17,09,42,15.30
2006,08,17,09,43,15.30
2006,08,17,09,44,15.30
2006,08,17,09,45,15.30
2006,08,17,09,46,15.40
2006,08,17,09,47,15.40
2006,08,17,09,48,15.40
2006,08,17,09,49,15.40
2006,08,17,09,50,15.40
2006,08,17,09,51,15.40
2006,08,17,09,52,15.50
2006,08,17,09,53,15.50
2006,08,17,09,54,15.50
2006,08,17,09,55,15.60
2006,08,17,09,56,15.60
2006,08,17,09,57,15.60
2006,08,17,09,58,15.70
2006,08,17,09,59,15.70
2006,08,17,10,00,15.70
2006,08,17,10,01,15.80
2006,08,17,10,02,15.70
2006,08,17,10,03,15.70
2006,08,17,10,04,15.80
2006,08,17,10,05,15.80
2006,08,17,10,06,15.80
2006,08,17,10,07,15.80
2006,08,17,10,08,15.80
2006,08,17,10,09,15.80
2006,08,17,10,10,15.90
2006,08,17,10,11,15.90
2006,08,17,10,12,16.00
2006,08,17,10,13,16.10
2006,08,17,10,14,16.10
2006,08,17,10,15,16.20
2006,08,17,10,16,16.20
2006,08,17,10,17,16.20
2006,08,17,10,18,16.20
2006,08,17,10,19,16.20
2006,08,17,10,20,16.20
2006,08,17,10,21,16.20
2006,08,17,10,22,16.20
2006,08,17,10,23,16.20
2006,08,17,10,24,16.20
2006,08,17,10,25,16.20
2006,08,17,10,26,16.20
2006,08,17,10,27,16.20
2006,08,17,10,28,16.20
2006,08,17,10,29,16.10
2006,08,17,10,30,16.10
2006,08,17,10,31,16.10
2006,08,17,10,32,16.00
2006,08,17,10,33,16.00
2006,08,17,10,34,16.00
2006,08,17,10,35,15.90
2006,08,17,10,36,15.90
2006,08,17,10,37,15.90
2006,08,17,10,38,15.90
2006,08,17,10,39,16.00
2006,08,17,10,40,16.10
2006,08,17,10,41,16.10
2006,08,17,10,42,16.20
2006,08,17,10,43,16.20
2006,08,17,10,44,16.20
2006,08,17,10,45,16.30
2006,08,17,10,46,16.30
2006,08,17,10,47,16.50
2006,08,17,10,48,16.60
2006,08,17,10,49,16.80
2006,08,17,10,50,17.00
2006,08,17,10,51,17.10
2006,08,17,10,52,17.20
2006,08,17,10,53,17.30
2006,08,17,10,54,17.40
2006,08,17,10,55,17.30
2006,08,17,10,56,17.30
2006,08,17,10,57,17.20
2006,08,17,10,58,17.20
2006,08,17,10,59,17.20
2006,08,17,11,00,17.20
2006,08,17,11,01,17.20
2006,08,17,11,02,17.30
2006,08,17,11,03,17.30
2006,08,17,11,04,17.30
2006,08,17,11,05,17.20
2006,08,17,11,06,17.20
2006,08,17,11,07,17.30
2006,08,17,11,08,17.30
2006,08,17,11,09,17.40
2006,08,17,11,10,17.50
2006,08,17,11,11,17.60
2006,08,17,11,12,17.60
2006,08,17,11,13,17.50
2006,08,17,11,14,17.40
2006,08,17,11,15,17.40
2006,08,17,11,16,17.40
2006,08,17,11,17,17.30
2006,08,17,11,18,17.30
2006,08,17,11,19,17.20
2006,08,17,11,20,17.20
2006,08,17,11,21,17.20
2006,08,17,11,22,17.30
2006,08,17,11,23,17.30
2006,08,17,11,24,17.50
2006,08,17,11,25,17.50
2006,08,17,11,26,17.60
2006,08,17,11,27,17.70
2006,08,17,11,28,17.80
2006,08,17,11,29,17.90
2006,08,17,11,30,18.20
2006,08,17,11,31,18.30
2006,08,17,11,32,18.20
2006,08,17,11,33,18.20
2006,08,17,11,34,18.10
2006,08,17,11,35,18.10
2006,08,17,11,36,18.10
2006,08,17,11,37,18.10
2006,08,17,11,38,18.10
2006,08,17,11,39,18.10
2006,08,17,11,40,18.10
2006,08,17,11,41,18.10
2006,08,17,11,42,18.20
2006,08,17,11,43,18.20
2006,08,17,11,44,18.30
2006,08,17,11,45,18.30
2006,08,17,11,46,18.20
2006,08,17,11,47,18.20
2006,08,17,11,48,18.00
2006,08,17,11,49,17.90
2006,08,17,11,50,17.70
2006,08,17,11,51,17.50
2006,08,17,11,52,17.50
2006,08,17,11,53,17.50
2006,08,17,11,54,17.70
2006,08,17,11,55,17.80
2006,08,17,11,56,17.70
2006,08,17,11,57,17.60
2006,08,17,11,58,17.60
2006,08,17,11,59,17.50
2006,08,17,12,00,17.30
2006,08,17,12,01,17.30
2006,08,17,12,02,17.30
2006,08,17,12,03,17.40
2006,08,17,12,04,17.60
2006,08,17,12,05,17.70
2006,08,17,12,06,17.70
2006,08,17,12,07,17.60
2006,08,17,12,08,17.60
2006,08,17,12,09,17.60
2006,08,17,12,10,17.60
2006,08,17,12,11,17.60
2006,08,17,12,12,17.60
2006,08,17,12,13,17.60
2006,08,17,12,14,17.70
2006,08,17,12,15,17.70
2006,08,17,12,16,17.60
2006,08,17,12,17,17.50
2006,08,17,12,18,17.40
2006,08,17,12,19,17.50
2006,08,17,12,20,17.50
2006,08,17,12,21,17.60
2006,08,17,12,22,17.70
2006,08,17,12,23,17.80
2006,08,17,12,24,17.90
2006,08,17,12,25,17.90
2006,08,17,12,26,18.00
2006,08,17,12,27,18.20
2006,08,17,12,28,18.00
2006,08,17,12,29,17.90
2006,08,17,12,30,17.90
2006,08,17,12,31,17.80
2006,08,17,12,32,17.70
2006,08,17,12,33,17.70
2006,08,17,12,34,17.60
2006,08,17,12,35,17.40
2006,08,17,12,36,17.30
2006,08,17,12,37,17.20
2006,08,17,12,38,17.10
2006,08,17,12,39,17.00
2006,08,17,12,40,17.00
2006,08,17,12,41,17.00
2006,08,17,12,42,17.00
2006,08,17,12,43,17.00
2006,08,17,12,44,17.10
2006,08,17,12,45,17.10
2006,08,17,12,46,17.00
2006,08,17,12,47,17.00
2006,08,17,12,48,17.00
2006,08,17,12,49,16.90
2006,08,17,12,50,16.80
2006,08,17,12,51,16.80
2006,08,17,12,52,16.80
2006,08,17,12,53,16.90
2006,08,17,12,54,16.90
2006,08,17,12,55,16.80
2006,08,17,12,56,16.80
2006,08,17,12,57,16.90
2006,08,17,12,58,16.90
2006,08,17,12,59,17.00
2006,08,17,13,00,17.20
2006,08,17,13,01,17.20
2006,08,17,13,02,17.20
2006,08,17,13,03,17.10
2006,08,17,13,04,17.00
2006,08,17,13,05,16.90
2006,08,17,13,06,16.90
2006,08,17,13,07,16.80
2006,08,17,13,08,16.90
2006,08,17,13,09,16.90
2006,08,17,13,10,16.90
2006,08,17,13,11,16.90
2006,08,17,13,12,16.80
2006,08,17,13,13,16.70
2006,08,17,13,14,16.70
2006,08,17,13,15,16.70
2006,08,17,13,16,16.70
2006,08,17,13,17,16.70
2006,08,17,13,18,16.70
2006,08,17,13,19,16.70
2006,08,17,13,20,16.70
2006,08,17,13,21,16.70
2006,08,17,13,22,16.70
2006,08,17,13,23,16.80
2006,08,17,13,24,16.80
2006,08,17,13,25,16.90
2006,08,17,13,26,16.80
2006,08,17,13,27,16.80
2006,08,17,13,28,16.80
2006,08,17,13,29,16.80
2006,08,17,13,30,16.80
2006,08,17,13,31,16.90
2006,08,17,13,32,16.90
2006,08,17,13,33,17.10
2006,08,17,13,34,17.20
2006,08,17,13,35,17.10
2006,08,17,13,36,17.10
2006,08,17,13,37,17.10
2006,08,17,13,38,17.00
2006,08,17,13,39,17.00
2006,08,17,13,40,17.10
2006,08,17,13,41,17.20
2006,08,17,13,42,17.30
2006,08,17,13,43,17.30
2006,08,17,13,44,17.10
2006,08,17,13,45,17.00
2006,08,17,13,46,16.80
2006,08,17,13,47,16.70
2006,08,17,13,48,16.60
2006,08,17,13,49,16.50
2006,08,17,13,50,16.40
2006,08,17,13,51,16.50
2006,08,17,13,52,16.60
2006,08,17,13,53,16.60
2006,08,17,13,54,16.70
2006,08,17,13,55,16.70
2006,08,17,13,56,16.70
2006,08,17,13,57,16.70
2006,08,17,13,58,16.70
2006,08,17,13,59,16.70
2006,08,17,14,00,16.80
2006,08,17,14,01,16.90
2006,08,17,14,02,16.90
2006,08,17,14,03,17.10
2006,08,17,14,04,17.20
2006,08,17,14,05,17.10
2006,08,17,14,06,17.00
2006,08,17,14,07,16.90
2006,08,17,14,08,16.80
2006,08,17,14,09,16.80
2006,08,17,14,10,16.90
2006,08,17,14,11,17.00
2006,08,17,14,12,17.00
2006,08,17,14,13,17.10
2006,08,17,14,14,17.30
2006,08,17,14,15,17.40
2006,08,17,14,16,17.50
2006,08,17,14,17,17.60
2006,08,17,14,18,17.60
2006,08,17,14,19,17.50
2006,08,17,14,20,17.30
2006,08,17,14,21,17.30
2006,08,17,14,22,17.30
2006,08,17,14,23,17.10
2006,08,17,14,24,17.10
2006,08,17,14,25,17.10
2006,08,17,14,26,17.20
2006,08,17,14,27,17.20
2006,08,17,14,28,17.20
2006,08,17,14,29,17.30
2006,08,17,14,30,17.30
2006,08,17,14,31,17.30
2006,08,17,14,32,17.30
2006,08,17,14,33,17.30
2006,08,17,14,34,17.30
2006,08,17,14,35,17.30
2006,08,17,14,36,17.20
2006,08,17,14,37,17.30
2006,08,17,14,38,17.30
2006,08,17,14,39,17.30
2006,08,17,14,40,17.50
2006,08,17,14,41,17.60
2006,08,17,14,42,17.50
2006,08,17,14,43,17.50
2006,08,17,14,44,17.50
2006,08,17,14,45,17.40
2006,08,17,14,46,17.50
2006,08,17,14,47,17.50
2006,08,17,14,48,17.70
2006,08,17,14,49,17.80
2006,08,17,14,50,17.90
2006,08,17,14,51,18.10
2006,08,17,14,52,18.20
2006,08,17,14,53,18.30
2006,08,17,14,54,18.50
2006,08,17,14,55,18.60
2006,08,17,14,56,18.70
2006,08,17,14,57,18.80
2006,08,17,14,58,18.90
2006,08,17,14,59,18.80
2006,08,17,15,00,18.80
2006,08,17,15,01,18.80
2006,08,17,15,02,18.90
2006,08,17,15,03,18.90
2006,08,17,15,04,19.00
2006,08,17,15,05,19.10
2006,08,17,15,06,19.20
2006,08,17,15,07,19.20
2006,08,17,15,08,19.30
2006,08,17,15,09,19.40
2006,08,17,15,10,19.40
2006,08,17,15,11,19.40
2006,08,17,15,12,19.40
2006,08,17,15,13,19.40
2006,08,17,15,14,19.40
2006,08,17,15,15,19.50
2006,08,17,15,16,19.60
2006,08,17,15,17,19.70
2006,08,17,15,18,19.70
2006,08,17,15,19,19.70
2006,08,17,15,20,19.80
2006,08,17,15,21,19.80
2006,08,17,15,22,19.80
2006,08,17,15,23,19.90
2006,08,17,15,24,19.90
2006,08,17,15,25,19.90
2006,08,17,15,26,19.90
2006,08,17,15,27,20.10
2006,08,17,15,28,20.10
2006,08,17,15,29,20.20
2006,08,17,15,30,20.20
2006,08,17,15,31,20.30
2006,08,17,15,32,20.50
2006,08,17,15,33,20.60
2006,08,17,15,34,20.80
2006,08,17,15,35,20.90
2006,08,17,15,36,21.00
2006,08,17,15,37,21.20
2006,08,17,15,38,21.20
2006,08,17,15,39,21.20
2006,08,17,15,40,21.30
2006,08,17,15,41,21.30
2006,08,17,15,42,21.30
2006,08,17,15,43,21.40
2006,08,17,15,44,21.40
2006,08,17,15,45,21.60
2006,08,17,15,46,21.50
2006,08,17,15,47,21.40
2006,08,17,15,48,21.40
2006,08,17,15,49,21.40
2006,08,17,15,50,21.40
2006,08,17,15,51,21.40
2006,08,17,15,52,21.50
2006,08,17,15,53,21.60
2006,08,17,15,54,21.60
2006,08,17,15,55,21.60
2006,08,17,15,56,21.60
2006,08,17,15,57,21.70
2006,08,17,15,58,21.90
2006,08,17,15,59,21.90
2006,08,17,16,00,22.00
2006,08,17,16,01,22.10
2006,08,17,16,02,22.10
2006,08,17,16,03,22.20
2006,08,17,16,04,22.20
2006,08,17,16,05,22.30
2006,08,17,16,06,22.30
2006,08,17,16,07,22.30
2006,08,17,16,08,22.40
2006,08,17,16,09,22.40
2006,08,17,16,10,22.50
2006,08,17,16,11,22.60
2006,08,17,16,12,22.60
2006,08,17,16,13,22.60
2006,08,17,16,14,22.60
2006,08,17,16,15,22.60
2006,08,17,16,16,22.70
2006,08,17,16,17,22.80
2006,08,17,16,18,22.70
2006,08,17,16,19,22.60
2006,08,17,16,20,22.60
2006,08,17,16,21,22.60
2006,08,17,16,22,22.60
2006,08,17,16,23,22.50
2006,08,17,16,24,22.50
2006,08,17,16,25,22.60
2006,08,17,16,26,22.60
2006,08,17,16,27,22.60
2006,08,17,16,28,22.60
2006,08,17,16,29,22.60
2006,08,17,16,30,22.60
2006,08,17,16,31,22.60
2006,08,17,16,32,22.60
2006,08,17,16,33,22.50
2006,08,17,16,34,22.40
2006,08,17,16,35,22.30
2006,08,17,16,36,22.30
2006,08,17,16,37,22.30
2006,08,17,16,38,22.30
2006,08,17,16,39,22.40
2006,08,17,16,40,22.40
2006,08,17,16,41,22.40
2006,08,17,16,42,22.40
2006,08,17,16,43,22.30
2006,08,17,16,44,22.30
2006,08,17,16,45,22.30
2006,08,17,16,46,22.30
2006,08,17,16,47,22.40
2006,08,17,16,48,22.50
2006,08,17,16,49,22.60
2006,08,17,16,50,22.60
2006,08,17,16,51,22.60
2006,08,17,16,52,22.60
2006,08,17,16,53,22.60
2006,08,17,16,54,22.60
2006,08,17,16,55,22.60
2006,08,17,16,56,22.60
2006,08,17,16,57,22.60
2006,08,17,16,58,22.50
2006,08,17,16,59,22.60
2006,08,17,17,00,22.60
2006,08,17,17,01,22.60
2006,08,17,17,02,22.70
2006,08,17,17,03,22.80
2006,08,17,17,04,22.90
2006,08,17,17,05,22.90
2006,08,17,17,06,22.90
2006,08,17,17,07,22.90
2006,08,17,17,08,22.90
2006,08,17,17,09,22.90
2006,08,17,17,10,22.90
2006,08,17,17,11,22.90
2006,08,17,17,12,22.90
2006,08,17,17,13,22.90
2006,08,17,17,14,22.90
2006,08,17,17,15,22.90
2006,08,17,17,16,23.00
2006,08,17,17,17,23.00
2006,08,17,17,18,23.10
2006,08,17,17,19,23.10
2006,08,17,17,20,23.00
2006,08,17,17,21,22.90
2006,08,17,17,22,22.90